Location: Cerda�ola
(41.4919°N, 2.1403°E)
Time: 03:29:53
(UTC+00:00)

Cosmos 1758 - Pass Details

Date: 29 March 2020
Orbit: 540 x 563 km, 82.5° (Epoch: 31 May)

Event Time Altitude Azimuth Distance (km) Brightness Sun altitude
Rises 19:43:08 0° 185° (S) 2,734 6.7 -17.0°
Reaches altitude 10° 19:45:17 10° 185° (S) 1,846 5.8 -17.4°
Maximum altitude 19:49:21 85° 99° (E) 571 3.2 -18.1°
Drops below altitude 10° 19:53:29 10° 9° (N) 1,864 6.2 -18.8°
Sets 19:55:40 0° 9° (N) 2,764 7.1 -19.2°
